Regional Weather Roundup
Issued by NWS

Home | Current Version | Previous Version | Graphics & Text | Print | Product List | Glossary Off
Versions: 1 2 3 4 5 6 7 8 9 10 11 12 13 14 15 16 17 18 19 20 21 22 23 24 25 26 27 28 29 30 31 32 33 34 35 36 37 38 39 40 41 42 43 44 45 46 47 48 49 50

000
ASUS43 KDMX 231903
RWRIA

WEATHER ROUNDUP FOR IOWA
NATIONAL WEATHER SERVICE DES MOINES IA
200 PM CDT SAT JUL 23 2016

NOTE: "FAIR" INDICATES FEW OR NO CLOUDS BELOW 12,000 FEET WITH NO
SIGNIFICANT WEATHER AND/OR OBSTRUCTIONS TO VISIBILITY.

* - THESE STATIONS ARE NOT NWS STATIONS...THUS NOT UNDER NWS
QUALITY CONTROL.  THEY ALSO DO NOT REPORT WEATHER SUCH
AS PRECIPITATION OR FOG.

IAZ001>003-012>014-020>022-031>034-043>046-232000-
   NORTHWEST IOWA

CITY           SKY/WX    TMP DP  RH WIND       PRES   REMARKS
CARROLL *      CLOUDY    81  77  89 S8        29.86R HX  88
CHEROKEE *     CLOUDY    85  77  76 S14       29.82R HX  95
DENISON *      CLOUDY    84  75  74 S12G20    29.82F HX  92
LE MARS *      MOSUNNY   88  77  70 S14       29.80S HX 100
SHELDON *      MOSUNNY   86  79  79 S13       29.80S HX  99
SIOUX CITY     MOSUNNY   92  77  61 S12       29.78F HX 105
SPENCER        CLOUDY    85  76  74 S14       29.83R HX  94
STORM LAKE *     N/A     82  77  83 S15G23    29.85S HX  91
$$

IAZ055>058-069>071-079>083-090>094-232000-
   SOUTHWEST IOWA

CITY           SKY/WX    TMP DP  RH WIND       PRES   REMARKS
ATLANTIC *     CLOUDY    84  75  74 S9        29.86S HX  92
CLARINDA *       N/A     88  79  74 MISG      29.88S HX 102
COUNCIL BLFS * CLOUDY    86  75  70 S9G16     29.85S HX  95
CRESTON *      PTSUNNY   84  79  84 S7        29.90S HX  96
HARLAN  *      CLOUDY    84  77  79 SE8       29.88F HX  94
LAMONI         CLOUDY    89  77  67 S14       29.88F HX 101
RED OAK *      CLOUDY    88  77  70 S12       29.86S HX 100
SHENANDOAH *   CLOUDY    86  79  79 S7        29.85F HX  99
$$

IAZ047>049-059>061-072>074-084-232000-
   CENTRAL IOWA

CITY           SKY/WX    TMP DP  RH WIND       PRES   REMARKS
AMES           LGT RAIN  84  80  88 SE7       29.87F HX  97
ANKENY *         N/A    N/A N/A N/A MISG        N/A
BOONE *        CLOUDY    82  79  89 SE8       29.87F HX  93
CHARITON *       N/A    N/A N/A N/A MISG        N/A
DES MOINES     CLOUDY    88  77  69 S3        29.88R HX 100
GRINNELL*      CLOUDY    88  78  73 SE9       29.89F HX 101
KNOXVILLE *    CLOUDY    86  79  79 SW3       29.87F HX  99
MARSHALLTOWN   CLOUDY    87  79  76 VRB5      29.88S HX 101
NEWTON *       CLOUDY    86  82  89 S7        29.88S HX 105
PELLA *        CLOUDY    87  77  72 S5        29.88F HX  99
PERRY *          N/A     85  80  85 SE3       29.87S HX  98
$$

IAZ004>006-015-016-023>025-035-036-232000-
   NORTH CENTRAL IOWA

CITY           SKY/WX    TMP DP  RH WIND       PRES   REMARKS
ALGONA *       CLOUDY    79  77  94 SE14G22   29.83F HX  83
ESTHERVILLE    CLOUDY    79  76  90 S16       29.83R HX  83
FORT DODGE *   CLOUDY    81  79  94 SE9       29.87S HX  89
MASON CITY     CLOUDY    76  75  97 SE13G21   29.86F
FOREST CITY *  PTSUNNY   75  75 100 SE12      29.85F
IOWA FALLS *   LGT RAIN  85  77  75 SE8       29.90F HX  95
$$

IAZ007>011-017>019-026>030-037>042-050>054-066-232000-
   NORTHEAST IOWA

CITY           SKY/WX    TMP DP  RH WIND       PRES   REMARKS
CEDAR RAPIDS   CLOUDY    88  83  85 SE12      29.90F HX 109
CHARLES CITY *   N/A    N/A N/A N/A E12       29.95F
CLINTON *      CLOUDY    87  80  79 SE8       29.95F HX 103
DECORAH *      CLOUDY    72  72 100 SE7G16    29.90F
DUBUQUE        CLOUDY    73  70  90 NE13      29.97F
MONTICELLO *   CLOUDY    79  75  89 NE12G18   29.92F HX  82
OELWEIN *      CLOUDY    77  72  83 E21G32    29.87F
WATERLOO       CLOUDY    84  78  82 W8        29.85F HX  95
$$

IAZ064-065-067-068-078-232000-
   EAST CENTRAL IOWA

CITY           SKY/WX    TMP DP  RH WIND       PRES   REMARKS
DAVENPORT      CLOUDY    87  79  76 SE9       29.95F HX 101
IOWA CITY      CLOUDY    89  81  77 SE10      29.92F HX 108
MT. PLEASANT * SUNNY     94  82  66 SE6       29.93F HX 116
MUSCATINE *    MOSUNNY   91  79  66 SE9       29.92F HX 107
QUAD CITIES    CLOUDY    89  79  72 SE12      29.93F HX 104
$$

IAZ062-063-075>077-085>089-095>099-232000-
   SOUTHEAST IOWA

CITY           SKY/WX    TMP DP  RH WIND       PRES   REMARKS
BURLINGTON     MOSUNNY   90  81  74 SE9       29.93F HX 109
FAIRFIELD *    MOSUNNY   91  79  66 SE12      29.91F HX 107
KEOKUK *       SUNNY     91  79  66 SE8G14    29.92F HX 107
OSKALOOSA *      N/A     89  78  70 S13       29.90F HX 102
CENTERVILLE *    N/A     91  73  55 S10       29.92S HX 100
OTTUMWA        CLOUDY    90  77  65 S12       29.89S HX 103
WASHINGTON *   MOSUNNY   90  82  79 S10       29.93F HX 111
$$

ABBREVIATIONS USED IN REMARKS
   TC - TEMPERATURES IN CELSIUS
  WCI - WIND CHILL INDEX
   HX - HEAT INDEX
  VSB - VISIBILITY
$$





USA.gov is the U.S. government's official web portal to all federal, state and local government web resources and services.